PDT,Max TemperatureF,Mean TemperatureF,Min TemperatureF,Max Dew PointF,MeanDew PointF,Min DewpointF,Max Humidity, Mean Humidity, Min Humidity, Max Sea Level PressureIn, Mean Sea Level PressureIn, Min Sea Level PressureIn, Max VisibilityMiles, Mean VisibilityMiles, Min VisibilityMiles, Max Wind SpeedMPH, Mean Wind SpeedMPH, Max Gust SpeedMPH,PrecipitationIn, CloudCover, Events, WindDirDegrees
2013-9-1,81,66,53,59,56,53,99,72,46,29.92,29.88,29.83,10,10,10,13,3,,0.00,2,,241
2013-9-2,81,68,55,58,56,54,95,69,45,29.97,29.92,29.89,10,10,10,12,4,,0.00,6,Rain,245
2013-9-3,75,66,59,63,60,57,100,90,57,30.04,30.00,29.96,10,9,2,7,3,,0.42,7,Rain-Thunderstorm,251
2013-9-4,71,63,55,61,59,55,100,85,68,30.07,30.04,30.01,10,10,9,12,3,,0.01,6,Rain,20
2013-9-5,68,64,60,63,61,57,100,94,73,30.06,30.01,29.97,10,8,3,14,5,,0.59,8,Rain-Thunderstorm,210
2013-9-6,66,62,59,63,60,59,100,95,83,30.14,30.03,29.96,10,7,2,10,5,,1.44,8,Rain,187
2013-9-7,73,65,57,63,59,55,100,90,60,30.14,30.09,30.04,10,8,0,8,2,,0.00,6,Fog,53
2013-9-8,79,65,51,61,56,50,100,92,47,30.13,30.09,30.05,10,4,0,7,1,,0.00,2,Fog,144
2013-9-9,77,66,55,61,59,55,100,94,57,30.09,30.05,30.00,10,4,0,7,2,,0.00,5,Fog,303
2013-9-10,76,64,51,61,56,51,100,93,57,30.01,29.98,29.91,10,3,0,10,1,,0.00,2,Fog,54
2013-9-11,89,70,51,63,56,52,100,81,31,29.96,29.92,29.88,10,5,0,8,2,,0.00,0,Fog,160
2013-9-12,78,68,59,63,59,59,100,94,54,30.02,30.00,29.92,10,5,0,7,3,,0.00,6,Fog,222
2013-9-13,66,62,59,61,59,59,100,95,78,29.99,29.96,29.89,10,6,2,6,4,,0.00,8,,214
2013-9-14,68,62,57,61,59,57,100,92,78,29.89,29.82,29.75,10,7,0,6,2,,0.00,5,Fog,51
2013-9-15,64,58,53,64,57,54,100,98,88,29.84,29.76,29.73,10,4,0,12,2,,0.00,4,Fog-Rain-Thunderstorm,194
2013-9-16,68,62,57,61,58,55,100,85,68,29.94,29.92,29.85,10,10,6,14,8,,0.06,8,Rain,200
2013-9-17,64,60,53,55,52,50,97,79,63,29.96,29.91,29.88,10,10,10,8,4,,0.00,7,Rain,123
2013-9-18,68,58,49,54,52,47,100,86,48,30.10,30.05,29.96,10,10,3,8,5,,0.00,4,,197
2013-9-19,76,58,41,52,46,41,100,91,37,30.05,29.98,29.79,10,4,0,9,1,,0.00,0,Fog,176
2013-9-20,75,60,44,58,53,45,100,87,43,29.79,29.69,29.62,10,8,2,15,4,,0.15,3,Rain-Thunderstorm,186
2013-9-21,69,58,48,58,53,48,100,91,56,29.74,29.70,29.67,10,6,0,12,3,,0.00,3,Fog,207
2013-9-22,62,57,53,56,53,50,100,91,72,29.79,29.69,29.59,10,9,3,15,9,23,0.57,7,Rain-Thunderstorm,182
2013-9-23,59,54,49,57,54,49,100,92,77,29.99,29.90,29.78,10,9,2,12,7,,0.14,8,Rain,203
2013-9-24,59,50,41,52,47,41,100,93,67,29.99,29.91,29.86,10,5,0,22,3,29,0.34,4,Fog-Rain-Thunderstorm,178
2013-9-25,59,50,44,50,49,45,100,95,65,30.06,29.94,29.86,10,8,1,9,3,,0.24,7,Rain,45
2013-9-26,62,49,37,52,43,37,100,94,54,30.17,30.08,30.04,10,4,0,5,2,,0.00,2,Fog,139
2013-9-27,57,52,46,54,51,46,100,91,81,30.16,30.01,29.88,10,10,7,15,7,24,0.05,7,Rain,184
2013-9-28,61,56,51,61,55,49,100,96,82,29.86,29.54,29.39,10,8,1,25,8,31,1.65,8,Rain,193
2013-9-29,56,52,49,54,50,47,95,89,77,29.60,29.46,29.18,10,10,5,22,15,38,0.59,6,Rain,174
2013-9-30,57,52,47,52,49,44,100,92,77,29.96,29.72,29.49,10,8,1,24,12,36,1.53,7,Rain-Thunderstorm,201